Bridgeport, West Virginia, United States (26330)
Lat: 39.29N, Lon: 80.26W
Wx Zone: WVZ031
Local Info
Past Weather Observations for Today

NOTE: This archive is for the closest National Weather Service station to Bridgeport. Information may differ from the station used for current weather conditions.

Click here for Long-term Archive

Time Weather Temperature Dewpoint Humidity Pressure Winds Precip Visibility
20:53
Mostly Cloudy
75°F / 24°C 66°F / 19°C 74% 29.98 in
(1015 mb)
NW 3.5 mph
(NW 6 kph)
- 10SM
19:53
Partly Cloudy
75°F / 24°C 66°F / 19°C 74% 29.95 in
(1014 mb)
Calm - 10SM
18:53
Mostly Cloudy
79°F / 26°C 66°F / 19°C 65% 29.95 in
(1014 mb)
W 5.8 mph
(W 9 kph)
- 10SM
17:53
Clear
81°F / 27°C 70°F / 21°C 70% 29.95 in
(1014 mb)
W 4.6 mph
(W 7 kph)
- 10SM
16:53
Clear
79°F / 26°C 72°F / 22°C 79% 29.98 in
(1015 mb)
W 4.6 mph
(W 7 kph)
0.00 in
(0.00 mm)
10SM
15:53
Mostly Cloudy
Light Rain
73°F / 23°C 70°F / 21°C 89% 29.98 in
(1015 mb)
Variable 3.5 mph
(Variable 6 kph)
0.05 in
(1.27 mm)
10SM
15:10
Overcast
Light Rain
73°F / 23°C 66°F / 19°C 78% 29.98 in
(1015 mb)
SSW 4.6 mph
(SSW 7 kph)
0.02 in
(0.51 mm)
6SM
15:06
Mostly Cloudy
Light Rain
72°F / 22°C 66°F / 19°C 83% 29.98 in
(1015 mb)
W 4.6 mph
(W 7 kph)
0.02 in
(0.51 mm)
5SM
14:55
Mostly Cloudy
Heavy Rain
73°F / 23°C 66°F / 19°C 78% 29.98 in
(1015 mb)
WNW 8.1 mph
(WNW 13 kph)
0.01 in
(0.25 mm)
2 1/2SM
14:53
Heavy Rain
73°F / 23°C 66°F / 19°C 78% 29.98 in
(1015 mb)
WNW 10.4 mph
(WNW 17 kph)
0.03 in
(0.76 mm)
3SM
13:53
Partly Cloudy
86°F / 30°C 70°F / 21°C 59% 29.98 in
(1015 mb)
W 6.9 mph
(W 11 kph)
- 10SM
12:53
Mostly Cloudy
84°F / 29°C 70°F / 21°C 62% 29.98 in
(1015 mb)
SSW 10.4 mph
(SSW 17 kph)
- 10SM
11:53
Clear
82°F / 28°C 70°F / 21°C 66% 29.98 in
(1015 mb)
S 12.7 mph
(S 20 kph)
- 10SM
10:53
Clear
81°F / 27°C 70°F / 21°C 70% 30.01 in
(1016 mb)
SW 8.1 mph
(SW 13 kph)
- 10SM
09:53
Partly Cloudy
79°F / 26°C 70°F / 21°C 74% 30.04 in
(1017 mb)
SW 9.2 mph
(SW 15 kph)
- 10SM
08:53
Partly Cloudy
75°F / 24°C 70°F / 21°C 83% 30.04 in
(1017 mb)
S 6.9 mph
(S 11 kph)
- 10SM
07:53
Mostly Cloudy
73°F / 23°C 68°F / 20°C 83% 30.06 in
(1018 mb)
SSW 5.8 mph
(SSW 9 kph)
0.00 in
(0.00 mm)
9SM
07:41
Mostly Cloudy
72°F / 22°C 68°F / 20°C 88% 30.06 in
(1018 mb)
Calm 0.00 in
(0.00 mm)
9SM
07:16
Overcast
Thunder Storms
72°F / 22°C 68°F / 20°C 88% 30.06 in
(1018 mb)
Calm 0.00 in
(0.00 mm)
8SM
06:53
Mostly Cloudy
Thunder Storms
72°F / 22°C 68°F / 20°C 88% 30.06 in
(1018 mb)
SW 11.5 mph
(SW 19 kph)
0.00 in
(0.00 mm)
3SM
06:39
Mostly Cloudy
Thunder Storms
72°F / 22°C 70°F / 21°C 94% 30.06 in
(1018 mb)
S 4.6 mph
(S 7 kph)
0.00 in
(0.00 mm)
6SM
05:53
Mostly Cloudy
70°F / 21°C 66°F / 19°C 88% 30.06 in
(1018 mb)
Calm - 10SM
04:53
Clear
68°F / 20°C 66°F / 19°C 94% 30.06 in
(1018 mb)
Calm - 10SM
03:53
Clear
70°F / 21°C 66°F / 19°C 88% 30.04 in
(1017 mb)
Calm - 10SM
02:53
Clear
70°F / 21°C 66°F / 19°C 88% 30.04 in
(1017 mb)
Calm - 8SM
01:53
Clear
70°F / 21°C 66°F / 19°C 88% 30.06 in
(1018 mb)
Calm - 10SM
00:53
Clear
72°F / 22°C 66°F / 19°C 83% 30.06 in
(1018 mb)
Calm - 10SM
Time Weather Temperature Dewpoint Humidity Pressure Winds Precip Visibility


Weather for websites

WeatherForYou.com, LLC is not responsible for any damages or problems caused by this service. Current weather conditions are obtained from the closest station including government and personal stations which may have varying degrees of accuracy. Weather forecasts are derived from the NOAA NDFD. Like all things, this site belongs to Jesus Christ... He just trusts me to maintain it. If you have any questions or comments email webmaster@weatherforyou.com

Copyright © 2014, WeatherForYou.com LLC. All rights reserved.